Regional Weather Roundup
Issued by NWS Northern Indiana

Home | Current Version | Previous Version | Text Only | Print | Product List | Glossary Off
Versions: 1 2 3 4 5 6 7 8 9 10 11 12 13 14 15 16 17 18 19 20 21 22 23 24 25 26 27 28 29 30 31 32 33 34 35 36 37 38 39 40 41 42 43 44 45 46 47 48 49 50

154
ASUS43 KIWX 290000
RWRIWX

KIWX WEATHER ROUNDUP
NATIONAL WEATHER SERVICE NORTHERN INDIANA
800 PM EDT THU APR 28 2016

NOTE: "FAIR" INDICATES FEW OR NO CLOUDS BELOW 12,000 FEET WITH NO
SIGNIFICANT WEATHER AND/OR OBSTRUCTIONS TO VISIBILITY.

* THESE STATIONS ARE NOT UNDER NWS QUALITY CONTROL. THEY ALSO MAY NOT
  REPORT WEATHER SUCH AS PRECIPITATION OR FOG.

INZ001>027-290100-
NORTHERN INDIANA

CITY           SKY/WX    TMP DP  RH WIND       PRES   REMARKS
GARY*          CLOUDY    46  46 100 N6        29.95R
SOUTH BEND     CLOUDY    51  45  79 E5        29.95R
6HR MIN TEMP:  51; 6HR MAX TEMP:  53;

ELKHART*       CLOUDY    52  48  87 E5        29.95R
GOSHEN         CLOUDY    52  45  77 E8        29.94R
6HR MIN TEMP:  51; 6HR MAX TEMP:  54;

ANGOLA*        CLOUDY    46  36  66 E9        29.94R
FORT WAYNE     CLOUDY    50  46  86 E7        29.95R
6HR MIN TEMP:  49; 6HR MAX TEMP:  54; 6HR PCP:  0.04;

PERU/GRISSOM   MOCLDY    54  51  89 E7        29.91R
6HR MIN TEMP:  54; 6HR MAX TEMP:  58;


$$
INZ028>050-290100-
CENTRAL INDIANA

CITY           SKY/WX    TMP DP  RH WIND       PRES   REMARKS
LAFAYETTE      CLOUDY    59  53  80 N7        29.90R
6HR MIN TEMP:  58; 6HR MAX TEMP:  64; 6HR PCP: TRACE;

KOKOMO*        MOCLDY    54  48  82 E8        29.92R
6HR MIN TEMP:  54; 6HR MAX TEMP:  57;

MUNCIE*        CLOUDY    55  50  83 NE8       29.92R HAZE
6HR MIN TEMP:  55; 6HR MAX TEMP:  65; 6HR PCP:  0.03;

INDIANAPOLIS   PTCLDY    64  56  75 N9        29.88R
6HR MIN TEMP:  64; 6HR MAX TEMP:  75; 6HR PCP:  0.05;


$$
MIZ043>046-050>051-056>058-064>065-071>073-077>080-290100-
SOUTHWEST LOWER MICHIGAN

CITY           SKY/WX    TMP DP  RH WIND       PRES   REMARKS
BATTLE CREEK   CLOUDY    46  38  73 E6        29.98R
6HR MIN TEMP:  44; 6HR MAX TEMP:  47;

BENTON HARBOR  CLOUDY    52  44  74 E7        29.95R
6HR MIN TEMP:  50; 6HR MAX TEMP:  53;

COLDWATER*     CLOUDY    47  38  68 E7        29.96R
6HR MIN TEMP:  47; 6HR MAX TEMP:  51;

HILLSDALE*     CLOUDY    46  37  70 NE7       29.96R
6HR MIN TEMP:  46; 6HR MAX TEMP:  48;

HOLLAND        CLOUDY    43  39  86 E10G17    30.00R FOG
6HR MIN TEMP:  42; 6HR MAX TEMP:  45;

GRAND RAPIDS   CLOUDY    44  36  73 E8        30.00R
6HR MIN TEMP:  41; 6HR MAX TEMP:  44; 6HR PCP:  0.01;

KALAMAZOO      CLOUDY    47  38  71 VRB5      29.98R
6HR MIN TEMP:  46; 6HR MAX TEMP:  51;

STURGIS*       CLOUDY    49  41  73 E7        29.95R
6HR MIN TEMP:  49; 6HR MAX TEMP:  51;

THREE RIVERS*  CLOUDY    49  41  72 E8        29.96R

$$
OHZ001>008-015>018-024>025-290100-
NORTHWEST OHIO

CITY           SKY/WX    TMP DP  RH WIND       PRES   REMARKS
DEFIANCE       CLOUDY    50  38  63 NE8       29.96R
6HR MIN TEMP:  50; 6HR MAX TEMP:  54;

FINDLAY        CLOUDY    49  39  68 N13       29.94R
6HR MIN TEMP:  49; 6HR MAX TEMP:  52;

TOLEDO EXPRESS CLOUDY    46  36  68 NE17G23   29.96R
6HR MIN TEMP:  46; 6HR MAX TEMP:  49;

TOLEDO METCALF CLOUDY    47  37  68 NE12      29.97R
6HR MIN TEMP:  46; 6HR MAX TEMP:  49;

LIMA           LGT RAIN  49  47  93 NE9       29.91S
6HR MIN TEMP:  49; 6HR MAX TEMP:  51; 6HR PCP:  0.02;


$$
AND FOR LAKE MICHIGAN COASTAL AND OPEN LAKE BUOY OBSERVATIONS

STATION/POSITION TEMP    WIND        PRES    VSBY  WAVE
                 AIR SEA DIR/SP/G                  HT/PER
                 (F)     (DEG/KT/KT) (MB)    (MI)  (FT/S)
CALUMET HARBOR    44                 1013.3R
MICHIGAN CITY     45      10/  8/  9   N/A
BURNS HARBOR      45      40/  7/ 11 1014.2R
SAINT JOSEPH      53      CALM  /  5 1014.9R
SOUTH LAKE BUOY   41 40   60/ 12/ 12 1014.9          2/ 4
4 MI NW BRIDGMAN  52 48  140/  4/  6   N/A           1/ 4

$$
&&




USA.gov is the U.S. government's official web portal to all federal, state and local government web resources and services.